• în România
  • Lista ţărilor
  • Pe 7 zile
  • Temperatura apei
  • Hartă satelitară
  • Meteo pe hartă
  • Widget-uri
  • user-avatar
    Intrare

    Meteo pe oră la Swansea

    Astăzi, 18 Februarie, Duminică

    Timp Temperatura Precipitaţii Vânt Presiune Umiditate
    00:00 +6°C° 0,1 mm 4 m/s 763 mmHg 95%
    01:00 +6°C° 0,1 mm 4 m/s 763 mmHg 95%
    02:00 +6°C° 0,1 mm 4 m/s 763 mmHg 95%
    03:00 +6°C° 0,1 mm 5 m/s 763 mmHg 95%
    04:00 +6°C° 0 mm 5 m/s 763 mmHg 95%
    05:00 +6°C° 0 mm 5 m/s 763 mmHg 95%
    06:00 +6°C° 0 mm 5 m/s 763 mmHg 95%
    07:00 +6°C° 0 mm 5 m/s 763 mmHg 94%
    08:00 +7°C° 0 mm 5 m/s 763 mmHg 94%
    09:00 +7°C° 0 mm 5 m/s 763 mmHg 93%
    10:00 +8°C° 0 mm 5 m/s 763 mmHg 90%
    11:00 +8°C° 0 mm 5 m/s 763 mmHg 88%
    12:00 +9°C° 0 mm 5 m/s 763 mmHg 86%
    13:00 +9°C° 0 mm 5 m/s 762 mmHg 86%
    14:00 +9°C° 0 mm 5 m/s 762 mmHg 87%
    15:00 +10°C° 0 mm 4 m/s 762 mmHg 87%
    16:00 +10°C° 0,1 mm 4 m/s 762 mmHg 90%
    17:00 +9°C° 0,1 mm 3 m/s 762 mmHg 92%
    18:00 +9°C° 0,1 mm 3 m/s 763 mmHg 95%
    19:00 +9°C° 0 mm 3 m/s 763 mmHg 95%
    20:00 +9°C° 0 mm 3 m/s 763 mmHg 96%
    21:00 +8°C° 0 mm 3 m/s 763 mmHg 96%
    22:00 +9°C° 0,1 mm 2 m/s 763 mmHg 97%
    23:00 +9°C° 0,1 mm 2 m/s 763 mmHg 97%

    Mâine, 19 Februarie, Luni

    Timp Temperatura Precipitaţii Vânt Presiune Umiditate
    00:00 +9°C° 0,1 mm 2 m/s 763 mmHg 97%
    01:00 +9°C° 0,1 mm 2 m/s 763 mmHg 97%
    02:00 +9°C° 0,1 mm 2 m/s 763 mmHg 98%
    03:00 +9°C° 0,1 mm 2 m/s 762 mmHg 98%
    04:00 +9°C° 0 mm 2 m/s 762 mmHg 98%
    05:00 +9°C° 0 mm 2 m/s 762 mmHg 97%
    06:00 +9°C° 0 mm 2 m/s 762 mmHg 97%
    07:00 +9°C° 0 mm 2 m/s 762 mmHg 96%
    08:00 +10°C° 0 mm 2 m/s 763 mmHg 96%
    09:00 +10°C° 0 mm 2 m/s 763 mmHg 95%
    10:00 +11°C° 0 mm 3 m/s 763 mmHg 92%
    11:00 +11°C° 0 mm 3 m/s 763 mmHg 89%
    12:00 +12°C° 0 mm 4 m/s 763 mmHg 86%
    13:00 +12°C° 0 mm 4 m/s 763 mmHg 86%
    14:00 +12°C° 0 mm 4 m/s 763 mmHg 85%
    15:00 +12°C° 0 mm 4 m/s 763 mmHg 84%
    16:00 +11°C° 0 mm 4 m/s 763 mmHg 87%
    17:00 +10°C° 0 mm 4 m/s 763 mmHg 90%
    18:00 +9°C° 0 mm 3 m/s 763 mmHg 93%
    19:00 +9°C° 0 mm 3 m/s 763 mmHg 93%
    20:00 +8°C° 0 mm 3 m/s 764 mmHg 93%
    21:00 +8°C° 0 mm 3 m/s 764 mmHg 93%
    22:00 +7°C° 0 mm 4 m/s 764 mmHg 94%
    23:00 +7°C° 0 mm 4 m/s 764 mmHg 94%

    Poimâine, 20 Februarie, Marţi

    Timp Temperatura Precipitaţii Vânt Presiune Umiditate
    00:00 +7°C° 0 mm 4 m/s 765 mmHg 94%
    01:00 +7°C° 0 mm 5 m/s 765 mmHg 93%
    02:00 +7°C° 0 mm 6 m/s 765 mmHg 92%
    03:00 +7°C° 0 mm 6 m/s 765 mmHg 91%
    04:00 +6°C° 0 mm 7 m/s 765 mmHg 90%
    05:00 +5°C° 0 mm 7 m/s 766 mmHg 88%
    06:00 +5°C° 0 mm 8 m/s 766 mmHg 86%
    07:00 +5°C° 0 mm 8 m/s 766 mmHg 84%
    08:00 +5°C° 0 mm 8 m/s 767 mmHg 83%
    09:00 +5°C° 0 mm 8 m/s 767 mmHg 81%
    10:00 +6°C° 0 mm 8 m/s 767 mmHg 77%
    11:00 +7°C° 0 mm 8 m/s 767 mmHg 72%
    12:00 +9°C° 0 mm 8 m/s 768 mmHg 68%
    13:00 +9°C° 0 mm 8 m/s 768 mmHg 67%
    14:00 +9°C° 0 mm 7 m/s 768 mmHg 66%
    15:00 +9°C° 0 mm 7 m/s 768 mmHg 66%
    16:00 +8°C° 0 mm 7 m/s 768 mmHg 70%
    17:00 +5°C° 0 mm 6 m/s 768 mmHg 74%
    18:00 +4°C° 0 mm 6 m/s 768 mmHg 78%
    19:00 +5°C° 0 mm 5 m/s 769 mmHg 80%
    20:00 +3°C° 0 mm 5 m/s 769 mmHg 82%
    21:00 +3°C° 0 mm 5 m/s 770 mmHg 84%
    22:00 +3°C° 0 mm 5 m/s 770 mmHg 85%
    23:00 +2°C° 0 mm 5 m/s 770 mmHg 86%

    21 Februarie, Miercuri

    Timp Temperatura Precipitaţii Vânt Presiune Umiditate
    00:00 +2°C° 0 mm 5 m/s 770 mmHg 87%
    01:00 +2°C° 0 mm 5 m/s 770 mmHg 88%
    02:00 +1°C° 0 mm 5 m/s 770 mmHg 89%
    03:00 +1°C° 0 mm 5 m/s 769 mmHg 89%
    04:00 +1°C° 0 mm 5 m/s 769 mmHg 90%
    05:00 +1°C° 0 mm 4 m/s 769 mmHg 91%
    06:00 0°C° 0 mm 4 m/s 769 mmHg 92%
    07:00 +1°C° 0 mm 5 m/s 769 mmHg 89%
    08:00 +2°C° 0 mm 5 m/s 769 mmHg 87%
    09:00 +2°C° 0 mm 5 m/s 770 mmHg 84%
    10:00 +3°C° 0 mm 5 m/s 769 mmHg 80%
    11:00 +5°C° 0 mm 5 m/s 769 mmHg 75%
    12:00 +6°C° 0 mm 4 m/s 769 mmHg 71%
    13:00 +6°C° 0 mm 4 m/s 769 mmHg 71%
    14:00 +6°C° 0 mm 4 m/s 768 mmHg 71%
    15:00 +6°C° 0 mm 4 m/s 768 mmHg 70%
    16:00 +5°C° 0 mm 4 m/s 768 mmHg 73%
    17:00 +4°C° 0 mm 4 m/s 768 mmHg 75%
    18:00 +3°C° 0 mm 4 m/s 767 mmHg 78%
    19:00 +3°C° 0 mm 4 m/s 767 mmHg 81%
    20:00 +1°C° 0 mm 4 m/s 768 mmHg 84%
    21:00 0°C° 0 mm 4 m/s 768 mmHg 87%
    22:00 0°C° 0 mm 4 m/s 767 mmHg 88%
    23:00 0°C° 0 mm 4 m/s 767 mmHg 89%

    22 Februarie, Joi

    Timp Temperatura Precipitaţii Vânt Presiune Umiditate
    00:00 0°C° 0 mm 4 m/s 767 mmHg 90%
    01:00 -1°C° 0 mm 4 m/s 767 mmHg 91%
    02:00 -1°C° 0 mm 4 m/s 766 mmHg 92%
    03:00 -1°C° 0 mm 4 m/s 766 mmHg 92%
    04:00 -1°C° 0 mm 4 m/s 766 mmHg 92%
    05:00 -1°C° 0 mm 5 m/s 765 mmHg 93%
    06:00 -1°C° 0 mm 5 m/s 765 mmHg 93%
    07:00 0°C° 0 mm 5 m/s 765 mmHg 89%
    08:00 0°C° 0 mm 5 m/s 765 mmHg 86%
    09:00 +1°C° 0 mm 6 m/s 765 mmHg 83%
    10:00 +2°C° 0 mm 6 m/s 765 mmHg 77%
    11:00 +3°C° 0 mm 6 m/s 765 mmHg 71%
    12:00 +4°C° 0 mm 6 m/s 765 mmHg 64%
    13:00 +4°C° 0 mm 6 m/s 764 mmHg 64%
    14:00 +5°C° 0 mm 5 m/s 764 mmHg 63%
    15:00 +6°C° 0 mm 5 m/s 764 mmHg 62%
    16:00 +3°C° 0 mm 5 m/s 764 mmHg 66%
    17:00 +2°C° 0 mm 5 m/s 764 mmHg 70%
    18:00 +1°C° 0 mm 5 m/s 764 mmHg 74%
    19:00 0°C° 0 mm 5 m/s 764 mmHg 78%
    20:00 0°C° 0 mm 5 m/s 764 mmHg 81%
    21:00 -1°C° 0 mm 5 m/s 764 mmHg 84%
    22:00 -1°C° 0 mm 5 m/s 764 mmHg 86%
    23:00 -2°C° 0 mm 5 m/s 764 mmHg 88%

    23 Februarie, Vineri

    Timp Temperatura Precipitaţii Vânt Presiune Umiditate
    00:00 -2°C° 0 mm 5 m/s 764 mmHg 90%
    01:00 -2°C° 0 mm 5 m/s 764 mmHg 90%
    02:00 -2°C° 0 mm 5 m/s 764 mmHg 90%
    03:00 -2°C° 0 mm 5 m/s 764 mmHg 91%
    04:00 -2°C° 0 mm 5 m/s 764 mmHg 90%
    05:00 -4°C° 0 mm 5 m/s 764 mmHg 90%
    06:00 -4°C° 0 mm 5 m/s 764 mmHg 90%
    07:00 -3°C° 0 mm 6 m/s 764 mmHg 84%
    08:00 -2°C° 0 mm 6 m/s 764 mmHg 78%
    09:00 -1°C° 0 mm 7 m/s 764 mmHg 72%
    10:00 0°C° 0 mm 7 m/s 765 mmHg 68%
    11:00 +2°C° 0 mm 7 m/s 765 mmHg 64%
    12:00 +3°C° 0 mm 7 m/s 765 mmHg 60%
    13:00 +3°C° 0 mm 7 m/s 764 mmHg 60%
    14:00 +4°C° 0 mm 7 m/s 764 mmHg 60%
    15:00 +4°C° 0 mm 7 m/s 764 mmHg 60%
    16:00 +3°C° 0 mm 6 m/s 764 mmHg 65%
    17:00 +1°C° 0 mm 6 m/s 764 mmHg 70%
    18:00 -1°C° 0 mm 6 m/s 764 mmHg 75%
    19:00 -1°C° 0 mm 6 m/s 764 mmHg 77%
    20:00 -2°C° 0 mm 7 m/s 764 mmHg 78%
    21:00 -2°C° 0 mm 7 m/s 765 mmHg 80%
    22:00 -4°C° 0 mm 8 m/s 765 mmHg 81%
    23:00 -4°C° 0 mm 8 m/s 765 mmHg 81%
    Arată mai mult